www.pogodaiklimat.ru

Погода и климат >> Архив погоды >> Австралия >> Charleville Aero


ПОГОДА в Charleville Aero

  • Прогноз погоды в Charleville Aero
  • Монитор погоды в Charleville Aero
  • Климат города

АРХИВ ПОГОДЫ в Charleville Aero

Время (UTC), дата Ветер
(напр.,м/с)
 
Видим.   Явления Облачность Т
(С)
Тd
(С)
f
(%)
Тe
(С)
Тes
(С)
Комфортность P
(гПа)
Po
(гПа)
Тmin
(С)
Tmax
(С)
R
(мм)
S
(см)
17 20.03 С 2 н/о н/о +23.4 +20.0 81 +30 +30 очень
душно
1010.0 975.9
18 20.03 С 3 н/о н/о +23.2 +20.0 82 +30 +30 очень
душно
1009.8 975.7
20 20.03 С 2 н/о н/о +22.4 +19.8 85 +28 +28 душно 1011.0 976.8
21 20.03 СВ 2 н/о н/о +22.4 +19.8 85 +28 +28 душно 1011.6 977.4
23 20.03 С 6 н/о н/о +26.5 +19.6 66 +32 +32 очень
душно
1012.6 978.4
00 21.03 С 7 н/о н/о +28.1 +19.3 59 +34 +34 очень
душно
1012.8 978.6
02 21.03 С 5 н/о н/о +30.0 +19.7 54 +36 +36 очень
душно
1012.0 977.8
03 21.03 С 6 н/о н/о +31.3 +18.3 46 +36 +36 очень
душно
1011.2 977.0
05 21.03 С 5 н/о н/о +31.4 +17.7 44 +36 +36 очень
душно
1009.5 975.4
06 21.03 С 4 н/о н/о +31.3 +17.6 44 +35 +35 очень
душно
1009.4 975.3
08 21.03 Ю 2 н/о 8/0
[]
+25.2 +18.2 65 +30 +30 душно 1011.0 976.8
09 21.03 В 4 н/о н/о +23.5 +20.0 81 +29 +29 душно 1011.9 977.7
11 21.03 СВ 3 н/о в посл. час дождь {туман} н/о +22.7 +20.4 87 +29 +29 очень
душно
1012.5 978.3
12 21.03 В 4 н/о н/о +22.8 +20.3 86 +30 +30 очень
душно
1012.3 978.1
14 21.03 СВ 4 н/о н/о +23.4 +20.3 83 +31 +31 очень
душно
1012.0 977.8 +32.2
15 21.03 С 5 н/о н/о +23.4 +19.3 78 +30 +30 очень
душно
1011.3 977.1
17 21.03 С 3 н/о н/о +22.6 +19.0 80 +28 +28 душно 1011.1 976.9
18 21.03 С 2 н/о н/о +22.1 +18.9 82 +27 +27 душно 1011.1 976.9
20 21.03 С 3 н/о н/о +21.6 +18.6 83 +26 +26 душно 1012.1 977.9
21 21.03 штиль 0 н/о н/о +22.1 +18.5 80 +27 +27 душно 1012.8 978.6
23 21.03 СВ 3 н/о н/о +25.4 +18.1 64 +30 +30 душно 1013.7 979.4
00 22.03 СВ 4 н/о н/о +26.9 +17.4 56 +31 +31 душно 1013.5 979.2
02 22.03 С 3 н/о 8/8 1000 м
[]
+29.9 +17.0 46 +34 +37 очень
душно
1012.1 977.9 +21.5
03 22.03 ЮВ 3 н/о н/о +31.5 +15.9 39 +34 +34 душно 1011.0 976.8
05 22.03 В 2 н/о 10/10 1500 м
[]
+31.5 +17.0 42 +35 +35 очень
душно
1009.5 975.4
06 22.03 В 4 н/о н/о +32.0 +17.1 41 +36 +36 очень
душно
1009.3 975.2
08 22.03 ЮВ 4 н/о н/о +31.2 +16.8 42 +35 +35 очень
душно
1009.2 975.1
09 22.03 В 2 н/о н/о +29.2 +17.4 49 +33 +33 очень
душно
1009.7 975.6
11 22.03 В 4 н/о н/о +27.5 +17.7 55 +32 +32 очень
душно
1011.4 977.2
12 22.03 В 5 н/о н/о +26.4 +18.3 61 +31 +31 душно 1012.1 977.9
14 22.03 В 4 н/о н/о +24.7 +18.9 70 +30 +30 очень
душно
1012.3 978.1 +32.7
15 22.03 СВ 3 н/о н/о +23.8 +19.1 75 +29 +29 душно 1011.7 977.5
17 22.03 СВ 4 н/о н/о +22.6 +19.4 82 +29 +29 очень
душно
1010.4 976.2
18 22.03 СВ 3 н/о н/о +22.3 +19.5 84 +28 +28 душно 1010.5 976.3
20 22.03 штиль 0 н/о н/о +21.6 +19.3 87 +27 +27 душно 1011.5 977.3
21 22.03 СВ 1 н/о н/о +22.0 +19.2 84 +27 +27 душно 1012.1 977.9
23 22.03 СВ 4 н/о н/о +26.3 +19.7 67 +32 +32 очень
душно
1013.2 979.0
00 23.03 С 4 н/о н/о +28.3 +19.8 60 +34 +34 очень
душно
1013.6 979.3
02 23.03 В 2 н/о 8/8 1000 м
[]
+30.3 +18.4 49 +35 +39 очень
душно
1012.3 978.1 +21.4
03 23.03 В 2 н/о н/о +31.2 +17.9 45 +35 +35 очень
душно
1011.2 977.0
05 23.03 ЮВ 5 н/о 10/10 1500 м
[]
+32.3 +17.4 41 +36 +36 очень
душно
1009.7 975.6
06 23.03 В 3 н/о н/о +33.6 +16.9 37 +37 +37 очень
душно
1009.2 975.1
08 23.03 СВ 3 н/о н/о +32.5 +16.8 39 +36 +36 очень
душно
1009.4 975.3
09 23.03 В 2 н/о н/о +30.8 +17.5 45 +35 +35 очень
душно
1010.0 975.9
11 23.03 В 3 н/о ясно +29.1 +18.8 54 +34 +34 очень
душно
1011.9 977.7
12 23.03 В 3 н/о н/о +27.8 +19.3 60 +33 +33 очень
душно
1012.2 978.0
14 23.03 СВ 3 н/о н/о +26.8 +18.9 62 +32 +32 очень
душно
1011.9 977.7 +34.2
15 23.03 СВ 3 н/о н/о +25.9 +19.3 67 +31 +31 очень
душно
1011.7 977.5
17 23.03 СВ 2 н/о н/о +24.5 +19.6 74 +30 +30 очень
душно
1010.8 976.6
18 23.03 СВ 3 н/о н/о +23.8 +19.5 77 +29 +29 душно 1010.5 976.3
20 23.03 СВ 3 н/о н/о +23.0 +19.6 81 +30 +30 очень
душно
1011.5 977.3
21 23.03 С 2 н/о н/о +23.4 +19.5 79 +30 +30 очень
душно
1011.9 977.7
23 23.03 С 3 н/о н/о +27.5 +20.1 64 +34 +34 очень
душно
1013.2 979.0
00 24.03 С 3 н/о н/о +29.5 +20.1 57 +36 +36 очень
душно
1013.0 978.8
02 24.03 СВ 3 н/о н/о +32.1 +18.3 44 +37 +37 очень
душно
1011.6 977.4 +22.8
03 24.03 В 2 н/о н/о +32.3 +17.4 41 +36 +36 очень
душно
1010.6 976.4
05 24.03 Ю 2 н/о н/о +35.2 +14.5 29 +36 +36 очень
жарко
1008.6 974.5
06 24.03 В 3 н/о н/о +35.3 +13.5 27 +36 +36 очень
жарко
1008.3 974.2
08 24.03 В 5 н/о ясно +34.5 +13.9 29 +35 +35 очень
жарко
1008.7 974.6
09 24.03 В 3 н/о н/о +32.4 +15.0 35 +34 +34 очень
жарко
1009.2 975.1
11 24.03 В 4 н/о н/о +30.9 +17.2 44 +35 +35 очень
душно
1010.8 976.6
12 24.03 В 4 н/о н/о +30.1 +17.9 48 +35 +35 очень
душно
1011.2 977.0
14 24.03 СВ 4 н/о н/о +28.5 +18.3 54 +33 +33 очень
душно
1011.4 977.2 +36.2
15 24.03 СВ 3 н/о н/о +27.5 +18.5 58 +32 +32 очень
душно
1011.1 976.9
17 24.03 СВ 2 н/о н/о +25.4 +18.6 66 +30 +30 душно 1010.8 976.6
18 24.03 СВ 2 н/о н/о +24.7 +18.6 69 +29 +29 душно 1010.6 976.4
20 24.03 В 2 н/о н/о +22.9 +18.4 76 +29 +29 очень
душно
1011.6 977.4
21 24.03 СВ 3 н/о н/о +23.9 +18.8 73 +29 +29 душно 1012.3 978.1
23 24.03 С 5 н/о н/о +28.1 +19.6 60 +34 +34 очень
душно
1013.9 979.6
00 25.03 С 4 н/о н/о +29.7 +19.1 53 +35 +35 очень
душно
1014.1 979.8
02 25.03 С 2 н/о н/о +32.3 +17.4 41 +36 +36 очень
душно
1012.6 978.4 +22.9
03 25.03 СВ 3 н/о н/о +33.0 +16.4 37 +36 +36 очень
душно
1011.4 977.2
05 25.03 ЮВ 4 н/о ясно +35.5 +13.1 26 +36 +42 очень
жарко
1009.6 975.5
06 25.03 ЮВ 4 н/о н/о +35.0 +13.2 27 +35 +35 очень
жарко
1009.0 974.9
08 25.03 В 4 н/о н/о +33.9 +13.4 29 +35 +35 очень
жарко
1009.4 975.3
09 25.03 В 4 н/о н/о +32.5 +13.7 32 +34 +34 очень
жарко
1010.1 976.0
11 25.03 В 4 н/о н/о +30.6 +13.8 36 +32 +32 жарко 1011.8 977.6
12 25.03 СВ 4 н/о н/о +30.1 +15.4 41 +33 +33 душно 1012.2 978.0
14 25.03 СВ 4 н/о н/о +28.2 +16.5 49 +32 +32 душно 1012.3 978.1 +36.2
15 25.03 СВ 2 н/о н/о +26.8 +16.7 54 +30 +30 душно 1011.8 977.6
17 25.03 СВ 2 н/о н/о +24.7 +16.9 62 +28 +28 душно 1010.7 976.5
18 25.03 штиль 0 н/о н/о +22.8 +16.8 69 +28 +28 душно 1011.0 976.8
20 25.03 СВ 2 н/о н/о +22.8 +17.5 72 +28 +28 душно 1012.3 978.1
21 25.03 С 3 н/о н/о +23.4 +17.4 69 +29 +29 душно 1013.0 978.8
23 25.03 С 4 н/о н/о +28.6 +17.2 50 +33 +33 очень
душно
1014.5 980.2
00 26.03 С 4 н/о н/о +30.6 +14.7 38 +33 +33 душно 1014.1 979.8
02 26.03 С 3 н/о н/о +33.3 +12.9 29 +34 +34 очень
жарко
1012.3 978.1 +22.1
03 26.03 В 3 н/о н/о +34.7 +11.8 25 +34 +34 очень
жарко
1011.1 976.9
05 26.03 В 4 н/о н/о +36.3 +11.9 23 +36 +36 очень
жарко
1009.1 975.0
06 26.03 В 6 н/о н/о +36.3 +11.9 23 +36 +36 очень
жарко
1008.7 974.6
08 26.03 В 4 н/о н/о +35.5 +11.2 23 +35 +35 очень
жарко
1009.0 974.9
09 26.03 В 3 н/о н/о +33.5 +11.9 27 +34 +34 очень
жарко
1009.7 975.6
11 26.03 В 3 н/о н/о +31.0 +12.4 32 +32 +32 жарко 1011.2 977.0
12 26.03 В 3 н/о н/о +29.9 +12.3 34 +31 +31 жарко 1011.5 977.3
14 26.03 СВ 3 н/о н/о +28.3 +12.6 38 +30 +30 жарко 1011.0 976.8 +37.1
15 26.03 СВ 2 н/о н/о +26.9 +12.9 42 +29 +29 жарко 1010.6 976.4
17 26.03 С 2 н/о н/о +24.3 +13.5 51 +27 +27 жарко 1009.7 975.6
18 26.03 штиль 0 н/о н/о +23.1 +14.1 57 +27 +27 душно 1009.7 975.6
20 26.03 штиль 0 н/о н/о +21.6 +14.7 65 +25 +25 комфорт 1011.2 977.0
21 26.03 штиль 0 н/о н/о +22.4 +15.3 64 +26 +26 жарко 1012.0 977.8
23 26.03 СВ 2 н/о н/о +29.2 +14.6 41 +31 +31 жарко 1013.2 979.0
00 27.03 С 4 н/о н/о +30.9 +14.5 37 +33 +33 душно 1012.9 978.7
02 27.03 В 3 н/о н/о +34.2 +13.1 28 +35 +35 очень
жарко
1011.2 977.0 +21.5
03 27.03 ЮВ 5 н/о н/о +35.8 +12.7 25 +36 +36 очень
жарко
1009.7 975.6
05 27.03 ЮВ 6 н/о 3/0
[]
+36.8 +12.3 23 +37 +40 очень
жарко
1008.0 973.9
06 27.03 ЮВ 6 н/о н/о +36.9 +11.7 22 +36 +36 очень
жарко
1007.6 973.5
08 27.03 ЮВ 7 н/о н/о +35.3 +11.7 24 +35 +35 очень
жарко
1008.2 974.1
09 27.03 ЮВ 4 н/о н/о +33.8 +11.6 26 +34 +34 очень
жарко
1008.8 974.7
11 27.03 В 4 н/о н/о +31.1 +12.9 33 +32 +32 жарко 1010.0 975.9
12 27.03 В 4 н/о н/о +30.4 +12.8 34 +31 +31 жарко 1009.9 975.8
14 27.03 В 3 н/о н/о +29.3 +14.7 41 +32 +32 душно 1009.6 975.5 +37.7
15 27.03 В 2 н/о н/о +28.1 +15.4 46 +31 +31 душно 1009.3 975.2

 

Местоположение метеостанции Charleville Aero (Квинсленд, Австралия): широта -26.41 долгота 146.26 высота над уровнем моря 303 м.

В архиве по умолчанию представлена погода в Charleville Aero за последнюю неделю. Архивные данные за месяц целиком и за предыдущие месяцы, начиная с января 2011 года, Вы можете получить, выбрав интересующий диапазон дат из раскрывающегося списка и нажав кнопку "Ввод!".

Внимание! Время в таблицах - всемирное. Для получения местного времени необходимо прибавить поправку, которая в Charleville Aero равна 10 ч.

Смотрите также архив погоды в соседних городах и на ближайших метеорологических станциях:

Погода в Blackall Airport (Квинсленд, Австралия) (237 км)
Погода в Roma Airport (Квинсленд, Австралия) (251 км)
Погода в St George Airport (Квинсленд, Австралия) (295 км)
Погода в Thargomindah Airport (Квинсленд, Австралия) (299 км)
Погода в Lochington (Квинсленд, Австралия) (304 км)
Погода в Rolleston Airport (Квинсленд, Австралия) (321 км)
Погода в Emerald Airport (Квинсленд, Австралия) (371 км)
Погода в Longreach Airport (Квинсленд, Австралия) (387 км)
Погода в Miles Constance Street (Квинсленд, Австралия) (391 км)
Погода в Bourke Airport Aws (Новый Южный Уэльс, Австралия) (404 км)

Пояснения к столбцам:

Ветер - указаны скорость ветра в м/с - средняя за 10 мин, порывы в срок и между сроками (в фигурных скобках) и направление, откуда дует ветер: С - северный, СВ - северо-восточный, В - восточный, ЮВ - юго-восточный, Ю - южный, ЮЗ - юго-западный, З - западный, СЗ - северо-западный.
Видимость - горизонтальная дальность видимости в метрах или километрах. При видимости от 1 до 10 км при отсутствии осадков обычно наблюдается дымка, при ухудшении видимости до 1 км и менее - туман. В сухую погоду видимость может ухудшаться дымом, пылью или мглою.
Явления - указаны атмосферные явления, наблюдавшиеся в срок или в последний час перед сроком; фигурными скобками обозначены явления, наблюдавшиеся между сроками (за 1-3 часа до срока); квадратными скобками обозначены град или гололедные отложения с указанием их диаметра в мм.
Облачность - указаны через наклонную черту общая и нижняя облачность в баллах и высота нижней границы облаков в метрах; квадратными скобками обозначены формы облаков: Ci - перистые, Cs - перисто-слоистые, Cc - перисто-кучевые, Ac - высококучевые, As - высокослоистые, Sc - слоисто-кучевые, Ns - слоисто-дождевые, Cu - кучевые, Cb - кучево-дождевые. Подробнее классификацию облаков см. в Атласе облаков (PDF).
T - Температура воздуха - температура, измеренная на высоте 2 м над землей.
Td - Температура точки росы - температура, при понижении до которой содержащийся в воздухе водяной пар достигнет насыщения.
f - Относительная влажность воздуха - влажноcть воздуха, измеренная на высоте 2 м над землей.
Te - Эффективная температура - температура, которую ощущает одетый по сезону человек в тени. Характеристика душности погоды. При расчете учитывается влияние влажности воздуха и скорости ветра на теплоощущения человека.
Tes - Эффективная температура на солнце - температура, которую ощущает человек, с поправкой на солнечный нагрев. Характеристика знойности погоды. Зависит от высоты солнца над горизонтом, облачности и скорости ветра. Ночью, в пасмурную погоду, а также при ветре 12 м/с и более поправка равна нулю.
P - Атмосферное давление - приведенное к уровню моря атмосферное давление.
Po - Атмосферное давление - измеренное на уровне метеостанции атмосферное давление.
Tmin - Минимальная температура - минимум температуры воздуха на высоте 2 м над землей.
Tmax - Максимальная температура - максимум температуры воздуха на высоте 2 м над землей.
R - Количество осадков - Количество выпавших осадков, мм. При наведении курсора мыши на число - период времени, за который выпало указанное количество осадков.
S - Снежный покров - Высота снежного покрова, см. При наведении курсора мыши на число - состояние снежного покрова и степень покрытия местности в баллах.